Location: Darlington Observatory
(36.4817°N, 105.8156°W)
Time: 19:08:15
(UTC-06:00)

NOSS 3-3 (A) - Visible Passes

Search period start: 31 October 2014 00:00
Search period end: 09 November 2014 23:00
Orbit: 969 x 1244 km, 63.4° (Epoch: 19 October)

Date Brightness Start Highest point End Pass type
(mag) Time Alt. Az. Time Alt. Az. Time Alt. Az.
31 Oct 6.6 05:54:25 10° SSE 05:58:59 21° ESE 06:03:40 10° ENE visible
01 Nov 7.1 05:13:15 10° ESE 05:14:49 11° ESE 05:16:24 10° E visible
02 Nov 5.0 05:14:00 10° S 05:20:05 51° ESE 05:26:28 10° NE visible
03 Nov 5.9 04:30:22 10° S 04:35:43 30° ESE 04:41:17 10° NE visible
04 Nov 6.6 03:47:40 10° SE 03:51:29 17° ESE 03:55:24 10° ENE visible
04 Nov 4.0 05:35:13 10° SW 05:41:33 73° WNW 05:48:16 10° NNE visible
05 Nov 4.3 04:50:40 10° SSW 04:56:58 70° ESE 05:03:36 10° NE visible
06 Nov 5.2 04:06:39 10° S 04:12:31 41° ESE 04:18:39 10° NE visible
06 Nov 4.7 05:57:41 10° WSW 06:03:28 35° NW 06:09:35 10° NNE visible
07 Nov 6.0 03:24:30 15° SSE 03:28:13 24° ESE 03:33:17 10° ENE visible
07 Nov 4.2 05:12:23 10° SW 05:18:36 54° NW 05:25:11 10° NNE visible
08 Nov 6.5 02:43:08 13° ESE 02:44:01 13° ESE 02:46:48 10° E visible
08 Nov 3.9 04:30:42 32° SSW 04:33:54 87° WNW 04:40:38 10° NNE visible
09 Nov 4.4 03:48:52 56° SE 03:49:22 58° ESE 03:55:52 10° NE visible
09 Nov 5.0 05:36:24 14° W 05:40:42 27° NW 05:46:20 10° NNE visible
